This demonstration page uses our WeatherBlox Daily Observations layout. Learn more.

36.17497, -115.13722

Hourly Observations for June 19, 2018

Temp ( °F °C ) Dew Point ( °F °C ) Humidity (%) Winds ( mph kmh ) Pressure ( in mb ) Visibility ( mi km ) Precip ( " mm )
12:53 am 00:53 Clear 77 25 26 -3.3 15 15 N 5 7 29.83 1010 10 16.09344 0 0
1:53 am 01:53 Clear 76 24.4 25 -3.9 15 15 SE 5 7 29.83 1010 10 16.09344 0 0
2:53 am 02:53 Clear 77 25 25 -3.9 14 14 Calm 29.83 1010 10 16.09344 0 0
3:53 am 03:53 Clear 75 23.9 26 -3.3 16 16 SSE 6 9 29.85 1011 10 16.09344 0 0
4:53 am 04:53 Clear 76 24.4 23 -5 14 14 NNW 9 15 29.85 1011 10 16.09344 0 0
5:53 am 05:53 Sunny 75 23.9 22 -5.6 14 14 N 12 19 29.88 1012 10 16.09344 0 0
6:53 am 06:53 Sunny 80 26.7 24 -4.4 13 13 N 10 17 29.88 1012 10 16.09344 0 0
7:53 am 07:53 Sunny 83 28.3 28 -2.2 13 13 N 10 17 29.88 1012 10 16.09344 0 0
8:53 am 08:53 Sunny 86 30 30 -1.1 13 13 N 15 24 29.88 1012 10 16.09344 0 0
9:53 am 09:53 Sunny 88 31.1 26 -3.3 10 10 E 6 9 29.91 1013 10 16.09344 0 0
10:53 am 10:53 Sunny 91 32.8 29 -1.7 11 11 ESE 9 15 29.91 1013 10 16.09344 0 0
11:53 am 11:53 Sunny 94 34.4 28 -2.2 9 9 E 7 11 29.88 1012 10 16.09344 0 0
12:53 pm 12:53 Sunny 93 33.9 26 -3.3 9 9 Calm 29.88 1012 10 16.09344 0 0
1:53 pm 13:53 Sunny 95 35 25 -3.9 8 8 N 3 6 29.85 1011 10 16.09344 0 0
2:53 pm 14:53 Sunny 96 35.6 25 -3.9 8 8 SW 9 15 29.83 1010 10 16.09344 0 0
3:53 pm 15:53 Sunny 98 36.7 26 -3.3 8 8 S 10 17 29.83 1010 10 16.09344 0 0
4:53 pm 16:53 Sunny 98 36.7 24 -4.4 7 7 Calm 29.8 1009 10 16.09344 0 0
5:53 pm 17:53 Sunny 99 37.2 24 -4.4 7 7 SSW 8 13 29.77 1008 10 16.09344 0 0
6:53 pm 18:53 Sunny 99 37.2 23 -5 6 6 SSW 8 13 29.77 1008 10 16.09344 0 0
7:53 pm 19:53 Sunny 97 36.1 23 -5 7 7 SSW 6 9 29.77 1008 10 16.09344 0 0
8:53 pm 20:53 Clear 91 32.8 25 -3.9 9 9 ESE 8 13 29.8 1009 10 16.09344 0 0
9:53 pm 21:53 Clear 90 32.2 27 -2.8 10 10 Calm 29.83 1010 10 16.09344 0 0
10:53 pm 22:53 Clear 88 31.1 28 -2.2 11 11 N 5 7 29.83 1010 10 16.09344 0 0
11:53 pm 23:53 Clear 85 29.4 29 -1.7 13 13 NW 6 9 29.83 1010 10 16.09344 0 0

Powered by AerisWeather